Flag for Laos Weather past 2 weeks in Vientiane, Laos

Now
84 °F

Scattered clouds.


Feels Like: 94 °F
Forecast: 75 / 87 °F
Wind: 2 mph from North

Location: Vientiane Airport

Current Time: Jul 25, 2014 at 2:34:07 PM

Latest Report: Jul 25, 2014 at 2:00 PM


Visibility: 4 mi

Pressure: 29.65 "Hg

Humidity: 79%

Dew point: 77 °F

Location of VientianeLocation

Historic Weather in Vientiane — Graph

°F

Vientiane temperature yesterday

Maximum temperature yesterday: 91 °F (at 3:30 PM)
Minimum temperature yesterday: 79 °F (at 6:00 AM)
Average temperature yesterday: 85 °F

Past Weeks' High & Low Weather Summary

 TemperatureHumidityPressure
High91 °F (Jul 17, 4:00 PM)100% (Jul 19, 7:00 AM)29.77 "Hg (Jul 19, 7:00 AM)
Low75 °F (Jul 22, 8:00 PM)49% (Jul 17, 6:00 PM)29.50 "Hg (Jul 17, 5:00 PM)
Average83 °F82%29.65 "Hg
* Reported Jul 10 1:00 PM — Jul 25 1:30 PM, Vientiane, Weather by CustomWeather, © 2014

Note: Actual official high and low records may vary slightly from our data, if they occured in-between our weather recording intervals... More about our weather records

Advertising

Vientiane weather history for previous 24 hours

 ConditionsComfort  
Time TempWeatherWind HumidityBarometerVisibility
1:30 PM
Jul 25
86 °FScattered clouds.2 mph75%29.68 "Hg4 mi
1:00 PM86 °FScattered clouds.2 mph75%29.68 "Hg3 mi
12:30 PM86 °FScattered clouds.2 mph79%29.68 "Hg4 mi
12:00 PM86 °FScattered clouds.2 mph79%29.68 "Hg4 mi
11:30 AM82 °FBroken clouds.2 mph84%29.71 "Hg4 mi
11:00 AM82 °FBroken clouds.2 mph84%29.71 "Hg4 mi
10:30 AM81 °FFog.2 mph89%29.71 "Hg2 mi
10:00 AM81 °FFog.2 mph89%29.71 "Hg2 mi
9:30 AM79 °FFog.2 mph89%29.71 "Hg2 mi
9:00 AM79 °FFog.2 mph89%29.71 "Hg2 mi
8:30 AM77 °FRain. Broken clouds.2 mph94%29.71 "Hg2 mi
7:00 AM75 °FRain. Broken clouds.2 mph100%29.68 "Hg2 mi
6:30 AM77 °FDrizzle. Partly sunny.2 mph94%29.65 "Hg2 mi
6:00 AM75 °FDrizzle. Partly sunny.2 mph100%29.65 "Hg2 mi
11:00 PM
Jul 24
81 °FPartly cloudy.2 mph89%29.68 "Hg2 mi
10:30 PM81 °FThunderstorms. Passing clouds.7 mph84%29.68 "Hg2 mi
10:00 PM81 °FThunderstorms. Passing clouds.7 mph84%29.68 "Hg2 mi
9:30 PM82 °FThunderstorms. Passing clouds.5 mph89%29.65 "Hg2 mi
9:00 PM82 °FThunderstorms. Passing clouds.5 mph89%29.65 "Hg2 mi
8:30 PM82 °FThunderstorms. Passing clouds.5 mph89%29.59 "Hg2 mi
8:00 PM82 °FThunderstorms. Passing clouds.5 mph89%29.59 "Hg2 mi
7:30 PM84 °FFog.5 mph79%29.59 "Hg2 mi
7:00 PM84 °FThunderstorms. Partly cloudy.5 mph79%29.59 "Hg3 mi
6:30 PM86 °FFog.2 mph75%29.56 "Hg3 mi
6:00 PM88 °FBroken clouds.2 mph70%29.56 "HgN/A
5:30 PM88 °FThunderstorms. Scattered clouds.5 mph70%29.56 "Hg4 mi
5:00 PM90 °FThunderstorms. Scattered clouds.5 mph67%29.56 "Hg4 mi
4:30 PM90 °FRain. Broken clouds.5 mph63%29.56 "Hg3 mi
4:00 PM91 °FRain. Broken clouds.5 mph59%29.56 "Hg4 mi
3:30 PM91 °FBroken clouds.2 mph63%29.56 "HgN/A
3:00 PM90 °FBroken clouds.2 mph67%29.59 "HgN/A
2:30 PM90 °FScattered clouds.2 mph67%29.59 "HgN/A
2:00 PM88 °FScattered clouds.2 mph70%29.62 "HgN/A
Weather by CustomWeather, © 2014

See weather overviewHow to use our weather pages